User: anonymous   Login
Location: Unspecified
(0.0000°N, 0.0000°E)
Time: 14:58:42
(UTC+01:00)
Language:

ARIANE 5 R/B - Orbit

View from above orbital plane
View from above orbital plane
View from above satellite
View from above satellite

Ground track
Ground track

The orbit data is extracted from the following two-line orbital elements,

1 28787U 05028B   15028.19252310 -.00000176  00000-0  23647-3 0  6128
2 28787 007.4242 011.5608 7170304 263.4599 310.6572 02.26559451 78361
Epoch (UTC): 28 January 2015 04:37:13
Eccentricity: 0.7170304
inclination: 7.4242°
perigee height: 551 km
apogee height: 35667 km
right ascension of ascending node: 11.5608°
argument of perigee: 263.4599°
revolutions per day: 2.26559451
mean anomaly at epoch: 310.6572°
orbit number at epoch: 7836

The dashed part of the orbit path shows where the satellite is in the earth's shadow,  

DLR